星链-5178 (STARLINK-5178 )

导读 | 星芒AI

STARLINK-5178 是 SpaceX 星链计划中的一颗低轨通信卫星,属于第51批发射的星链卫星群。该卫星运行在约550公里高度的近地轨道,旨在为全球用户提供高速互联网服务。作为星链网络的一部分,它通过与其他卫星协同工作,实现低延迟、广覆盖的通信能力。该卫星采用可再生太阳能供电,并具备自主变轨和避障功能,以确保运行安全与系统稳定性。

基本信息
目录编号:
54083
目录名称:
STARLINK-5178
国际标识:
2022-136AJ
轨道中心:
EARTH
卫星名称:
星链-5178
卫星全名:
星链-5178 (STARLINK-5178 )
卫星状态:
在轨 (已飞行1111 天)
发射日期:
2022-10-20 UTC
国别 :
美国 (US)
星等 :
--
轨道信息
数据来源 国际轨道数据 AOE轨道数据
星历时间 2025-11-04T23:09:50+0800
7小时前
查看轨道信息
2025-10-31T21:00:00+0800
4天前
查看轨道信息
半长轴 6917.866km 6917.864km
偏心率 0.000152 0.0001425
轨道倾角 53.215° 53.216°
近地点辐角 92.085° 82.917°
升交点赤经 175.593° 193.956°
平近点角 268.032° 8.134°
近地点 538.679km 538.743km
远地点 540.783km 540.715km
周期 95.437分钟 95.437分钟
每日圈数 15.088449 15.088455
详细信息
固有亮度:
5
最大亮度:
2.5
卫星平台:
Starlink v1.5
覆盖范围:
全球
运营商:
太空探索技术公司
运营商所在国:
美国
制造商(研发单位):
太空探索技术公司
制造商所在国:
美国
使用方式:
暂无
卫星简介
星链(Starlink)计划是由太空探索技术公司(SpaceX)提出的一个巨型低轨卫星互联网星座项目,计划在2019年至2024年间在太空搭建由约1.2万颗卫星组成的“星链”网络,其中1584颗将部署在地球上空550千米处的近地轨道,并从2020年开始工作。该卫星仍在工作。
2D轨道图
3D轨道图
轨道高度分析图
轨道倾角分析图
轨道综合分析图
查看轨道综合分析图